sat.trackr.live / text

‹ back to catalog

STARLINK-11402 [DTC]

NORAD 61874 · 2024-204A

PAYLOAD ACTIVE UNKNOWN

§ Identity

Operator
Country
US
Launch date
2024-11-09
Launch site
AFWTR
Launch vehicle
Mass (kg)
RCS (m²)

Purposes: comms

External: N2YO · Heavens-Above · Gunter

§ Orbital elements

Epoch: 2026-05-24T22:12:11.877408Z

Period
91.74 min
Inclination
53.1592°
Eccentricity
0.0001032
Mean motion
15.69710782 rev/d
Perigee alt
359.0 km
Apogee alt
360.4 km
Semi-major
6,737.9 km
B*
1.1500e-5
RAAN
340.8091°
Arg perigee
89.8012°
Mean anomaly
270.3124°
Rev number
8,947

§ Raw data

STARLINK-11402 [DTC]1 61874U 24204A   26144.92513747  .00000805  00000+0  11500-4 0  99962 61874  53.1592 340.8091 0001032  89.8012 270.3124 15.69710782 89475

JSON: /api/v1/satellites/61874 · /tle

For live sub-satellite position, see the globe view (requires WebGL).

§ Visibility from observer

Set your observer location to see the next 7 days of passes ≥ 10°. The values pass through the URL so the page stays shareable.

No JS? Fill the form by hand. The geolocation button needs JavaScript.